Weather observations for the past three days for
Phillips / Price County
Imperial (Metric)
Date Time (cdt) Wind (mph) Vis. (mi.) Weather Sky Cond. Temperature (ºF) Relative Humidity Wind Chill (°F) Heat Index (°F) Pressure Precipitation (in)
Air Dwpt 6 hour altimeter (in) sea level (mb) 1 hr 3 hr 6 hr
Max. Min.
18 06:15 Calm 10.00 Partly Cloudy SCT060 46.8 46.8 100% 30.24 0.0
18 05:55 Calm 10.00 Overcast OVC060 45.9 45.9 100% 30.24 0.0
18 05:35 Calm 10.00 Partly Cloudy SCT060 45.9 45.9 100% 30.23 0.0
18 05:15 Calm 10.00 Fair CLR 45.1 45.1 100% 30.23 0.0
18 04:55 Calm 10.00 Fair CLR 45.5 45.5 100% 30.23 0.0
18 04:35 Calm 10.00 Fair CLR 46 46 100% 30.22 0.0
18 04:15 Calm 10.00 Fair CLR 48.2 48.2 100% 30.21 0.0
18 03:55 Calm 10.00 Fair CLR 46.6 46.6 100% 30.21 0.0
18 03:35 Calm 7.00 Fair CLR 46.6 46.6 100% 30.2 0.0
18 03:15 Calm 7.00 Fair CLR 45.9 45.9 100% 30.2 0.0
18 02:55 Calm 7.00 Fair CLR 46.6 46.6 100% 30.2 0.0
18 02:35 Calm 10.00 Fair CLR 47.8 47.8 100% 30.2 0.0
18 02:15 Calm 10.00 Fair CLR 48.6 48.6 100% 30.2 0.0
18 01:55 Calm 5.00 Fog/Mist CLR 48.2 48.2 100% 30.19 0.0
18 01:35 Calm 2.50 Fog/Mist CLR 48.2 48.2 100% 30.2 0.0
18 01:15 Calm 10.00 Fair CLR 47.7 47.7 100% 30.19 0.0
18 00:55 Calm 7.00 Fair CLR 48.2 48.2 64.2 47.7 100% 30.19 0.0
18 00:35 Calm 10.00 Fair CLR 48.4 48.4 100% 30.18 0.0
18 00:15 Calm 10.00 Fair CLR 48.4 48.4 100% 30.18 0.0
17 23:55 Calm 10.00 Fair CLR 49.6 49.6 100% 30.18 0.0
17 23:35 Calm 10.00 Fair CLR 49.5 49.5 100% 30.18 0.0
17 23:15 Calm 10.00 Fair CLR 50.2 50.2 100% 30.17 0.0
17 22:55 Calm 10.00 Fair CLR 49.8 49.8 100% 30.17 0.0
17 22:35 Calm 10.00 Fair CLR 50.7 50.7 100% 30.17 0.0
17 22:15 Calm 10.00 Fair CLR 51.3 51.1 99% 30.17 0.0
17 21:55 Calm 10.00 Fair CLR 52.2 50.9 96% 30.17 0.0
17 21:35 Calm 10.00 Fair CLR 52.7 50.9 94% 30.16 0.0
17 21:15 Calm 10.00 Fair CLR 54 51.8 92% 30.16 0.0
17 20:55 Calm 10.00 Fair CLR 55 51.8 89% 30.16 0.0
17 20:35 Calm 10.00 Fair CLR 57.2 52.2 83% 30.15 0.0
17 20:15 Calm 10.00 Fair CLR 59.7 51.6 75% 30.16 0.0
17 19:55 Calm 10.00 Fair CLR 62.6 49.5 62% 30.15 0.0
17 19:35 Calm 10.00 Fair CLR 63.7 50 61% 30.15 0.0
17 19:15 N 3 10.00 Partly Cloudy SCT055 64.2 50.4 61% 30.15 0.0
17 18:55 Calm 10.00 Mostly Cloudy BKN055 63.9 50 66.4 61.9 61% 30.15 0.0
17 18:35 N 6 10.00 Overcast OVC055 64.2 49.6 59% 30.15 0.0
17 18:15 N 10 10.00 Mostly Cloudy SCT043 SCT050 BKN055 63.9 50.4 62% 30.15 0.0
17 18:00 N 10 10.00 Mostly Cloudy SCT043 BKN055 66 50.5 58% 30.14 0.0
17 17:35 N 5 10.00 Overcast SCT049 OVC055 63.5 49.5 60% 30.14 0.0
17 17:15 N 7 10.00 Overcast SCT049 OVC055 64.9 49.5 57% 30.14 0.0
17 16:55 N 6 10.00 Mostly Cloudy BKN060 64 48.9 58% 30.14 0.0
17 16:35 N 9 10.00 Mostly Cloudy SCT044 BKN050 65.7 48.7 55% 30.14 0.0
17 16:15 N 6 10.00 Overcast SCT039 SCT047 OVC050 64.4 50.5 61% 30.14 0.0
17 15:55 N 6 G 17 10.00 Partly Cloudy SCT041 SCT048 SCT060 64.2 50 60% 30.14 0.0
17 15:35 N 9 G 18 10.00 Mostly Cloudy SCT035 SCT041 BKN050 64.8 51.4 62% 30.14 0.0
17 15:15 N 9 G 17 10.00 Overcast SCT035 BKN050 OVC055 63.1 51.1 65% 30.13 0.0
17 14:55 N 7 10.00 Overcast BKN035 BKN046 OVC055 62.8 50.9 65% 30.13 0.0
17 14:35 N 10 G 16 10.00 Overcast OVC033 62.6 50.9 66% 30.12 0.0
17 14:15 N 7 10.00 Overcast BKN031 BKN037 OVC050 62.8 51.1 66% 30.12 0.0
17 13:55 N 10 G 18 10.00 Overcast SCT031 SCT044 OVC055 62.8 51.3 66% 30.12 0.0
17 13:35 N 12 G 18 10.00 Overcast SCT027 SCT043 OVC055 62.2 50.9 67% 30.12 0.0
17 13:15 N 10 G 20 10.00 Overcast SCT027 OVC055 64.2 52.5 66% 30.11 0.0
17 12:55 NW 13 G 20 10.00 Mostly Cloudy BKN025 BKN055 62.8 51.8 62.8 53.1 68% 30.11 0.0
17 12:35 NW 9 G 17 10.00 Mostly Cloudy SCT022 BKN031 BKN042 62.1 52.3 71% 30.11 0.0
17 12:15 N 9 G 17 10.00 Overcast SCT020 BKN027 OVC039 58.3 51.8 79% 30.11 0.0
17 11:55 N 8 G 16 10.00 Overcast SCT022 BKN035 OVC047 60.1 51.3 73% 30.11 0.0
17 11:35 N 10 10.00 Overcast BKN026 OVC035 58.3 50.9 77% 30.11 0.0
17 11:15 N 7 10.00 Overcast SCT030 BKN039 OVC048 60.3 50.4 70% 30.1 0.0
17 10:55 N 8 10.00 Overcast SCT024 BKN037 OVC043 58.8 50 73% 30.09 0.0
17 10:35 NW 9 G 16 10.00 Overcast BKN024 OVC029 58.1 50 75% 30.09 0.0
17 10:15 NW 9 10.00 Overcast BKN024 OVC033 57.6 49.6 75% 30.09 0.0
17 09:55 NW 7 10.00 Mostly Cloudy BKN026 BKN036 BKN044 58.5 49.3 72% 30.08 0.0
17 09:35 NW 8 10.00 Overcast BKN026 OVC034 57.2 49.1 75% 30.08 0.0
17 09:20 N 7 10.00 Overcast SCT024 OVC032 57.4 49.1 74% 30.07 0.0
17 08:55 NW 8 10.00 Overcast SCT020 BKN028 OVC033 56.3 49.3 77% 30.06 0.0
17 08:15 NW 8 10.00 Mostly Cloudy BKN016 55.9 50.2 81% 30.04 0.0
17 07:55 NW 10 10.00 Partly Cloudy SCT012 SCT029 55.8 51.1 84% 30.04 0.0
17 07:35 NW 3 10.00 Mostly Cloudy SCT010 BKN029 54.7 51.4 89% 30.04 0.0
17 07:15 NW 3 10.00 Fair CLR 53.8 51.3 91% 30.03 0.0
17 06:55 Calm 10.00 Partly Cloudy SCT020 52.9 51.1 55 50.7 94% 30.02 0.0
17 06:35 NW 3 10.00 Fair CLR 52.2 51.3 97% 30.02 0.0
17 06:15 Calm 10.00 Fair CLR 51.8 51.4 99% 30.01 0.0
17 05:55 Calm 10.00 Fair CLR 51.1 51.1 100% 30.01 0.0
17 05:35 Calm 10.00 Fair CLR 51.1 51.1 100% 29.99 0.0
17 05:15 Calm 10.00 Fair CLR 50.9 50.9 100% 29.99 0.0
17 04:55 Calm 10.00 Fair CLR 50.9 50.9 100% 29.99 0.0
17 04:35 Calm 10.00 Partly Cloudy SCT085 51.3 51.3 100% 29.98 0.0
17 04:15 Calm 10.00 Partly Cloudy SCT085 51.6 51.3 99% 29.98 0.0
17 03:35 Calm 10.00 Fair CLR 52 50.9 96% 29.96 0.0
17 03:15 Calm 10.00 Fair CLR 52.7 51.1 94% 29.96 0.0
17 02:55 Calm 10.00 Fair CLR 52.9 50.9 93% 29.96 0.0
17 02:35 Calm 10.00 Fair CLR 53.2 51.1 92% 29.96 0.0
17 02:15 Calm 10.00 Fair CLR 52.9 51.1 94% 29.96 0.0
17 01:55 Calm 10.00 Fair CLR 54 51.3 91% 29.96 0.0
17 01:35 Calm 10.00 Fair CLR 54.5 51.6 90% 29.96 0.0
17 01:15 Calm 10.00 Fair CLR 54.3 51.6 91% 29.96 0.0
17 00:55 Calm 10.00 Fair CLR 55.4 51.6 71.6 54.7 87% 29.96 0.0
17 00:35 Calm 10.00 Partly Cloudy SCT060 55.6 51.8 87% 29.95 0.0
17 00:15 Calm 10.00 Mostly Cloudy BKN060 56.5 52 85% 29.94 0.0
16 23:55 Calm 10.00 Mostly Cloudy BKN060 BKN120 57.4 52.2 83% 29.94 0.0
16 23:35 Calm 10.00 Mostly Cloudy BKN120 57.2 52 83% 29.94 0.0
16 23:15 Calm 10.00 Mostly Cloudy BKN120 57.4 52.9 85% 29.93 0.0
16 22:55 Calm 10.00 Partly Cloudy SCT120 59.5 52 76% 29.93 0.0
16 22:35 N 3 10.00 Fair CLR 60.8 52 73% 29.93 0.0
16 22:15 N 5 10.00 Partly Cloudy SCT055 62.2 52.9 72% 29.93 0.0
16 21:55 NW 3 10.00 Partly Cloudy SCT055 62.6 52.5 70% 29.92 0.0
16 21:35 Calm 10.00 Mostly Cloudy BKN055 BKN120 63.5 52.5 68% 29.91 0.0
16 21:15 Calm 10.00 Mostly Cloudy SCT065 BKN110 63.7 52.3 67% 29.9 0.0
16 20:55 Calm 10.00 Mostly Cloudy SCT070 SCT075 BKN110 66 52 61% 29.9 0.0
16 20:35 NW 3 10.00 Mostly Cloudy SCT080 BKN090 BKN110 67.1 52 58% 29.89 0.0
16 20:15 Calm 10.00 Overcast SCT080 OVC090 68.5 51.8 55% 29.89 0.0
16 19:35 NW 5 10.00 Partly Cloudy SCT060 70.5 51.6 51% 29.89 0.0
16 19:15 NW 3 10.00 Fair CLR 71.1 51.6 50% 29.89 0.0
16 18:55 NW 7 10.00 Fair CLR 71.6 52.5 75 66.2 51% 29.89 0.0 0.07
16 18:35 NW 5 10.00 Fair CLR 72.1 52.2 50% 29.89 0.0
16 18:15 W 6 10.00 Fair CLR 72.5 51.6 48% 29.89 0.0
16 17:55 NW 8 10.00 Partly Cloudy SCT060 SCT070 72.7 50.5 46% 29.89 0.0
16 17:35 NW 6 10.00 Partly Cloudy SCT060 SCT070 73.8 51.6 46% 29.89 0.0
16 17:15 NW 9 10.00 Partly Cloudy SCT060 73.4 52.2 47% 29.89 0.0
16 16:55 NW 10 10.00 Mostly Cloudy BKN060 73.2 52.7 49% 29.88 0.0
16 16:35 NW 8 10.00 Partly Cloudy SCT060 73 52.2 48% 29.88 0.0
16 16:15 W 9 10.00 Partly Cloudy SCT050 74.7 52.3 46% 29.88 0.0
16 15:55 W 8 10.00 Partly Cloudy SCT050 SCT070 74.8 54.1 49% 29.87 0.0 0.07
16 15:35 NW 5 10.00 Mostly Cloudy SCT050 BKN065 72.7 55.4 55% 29.87 0.0
16 15:15 NW 9 10.00 Partly Cloudy SCT065 SCT090 72.1 55 55% 29.87 0.0
16 14:55 NW 8 10.00 Mostly Cloudy SCT040 SCT047 BKN090 72.1 58.1 61% 29.87 0.0
16 14:35 NW 8 10.00 Mostly Cloudy SCT040 SCT046 BKN095 72.3 58.6 62% 29.86 0.0
16 14:15 NW 5 10.00 Partly Cloudy SCT041 SCT090 71.1 60.3 69% 29.86 0.0
16 13:55 Calm 5.00 Light Rain SCT037 SCT044 BKN090 66.2 59.5 79% 29.86 0.0 0.07
16 13:35 W 5 10.00 Mostly Cloudy BKN100 73.2 59.5 62% 29.86 0.0
16 13:15 W 3 10.00 Mostly Cloudy BKN090 69.4 59.9 72% 29.86 0.0
16 12:55 NW 6 10.00 Mostly Cloudy BKN090 71.6 57.6 73 58.3 61% 29.87 0.0
16 12:35 NW 6 10.00 Overcast BKN037 BKN070 OVC090 71.1 58.6 65% 29.86 0.0
16 12:15 NW 5 10.00 Overcast BKN037 OVC046 71.6 57.4 61% 29.86 0.0
16 11:55 NW 3 10.00 Mostly Cloudy SCT039 SCT044 BKN050 71.2 57.2 61% 29.86 0.0
16 11:35 W 5 10.00 Partly Cloudy SCT039 SCT060 SCT080 71.1 57.2 62% 29.87 0.0
16 11:15 NW 5 10.00 Mostly Cloudy BKN039 BKN050 BKN065 69.8 56.1 62% 29.86 0.0
16 10:55 NW 6 10.00 Mostly Cloudy SCT036 SCT044 BKN055 71.2 56.3 59% 29.86 0.0
16 10:35 NW 5 10.00 Mostly Cloudy SCT031 BKN040 69.4 56.7 64% 29.86 0.0
16 10:15 NW 6 10.00 Partly Cloudy SCT031 70 58.5 67% 29.85 0.0
16 09:55 NW 5 10.00 Partly Cloudy SCT026 SCT032 69.6 59 69% 29.85 0.0
16 09:35 N 6 10.00 Fair CLR 68 58.5 72% 29.85 0.0
16 09:15 NW 6 10.00 Fair CLR 67.5 60.1 77% 29.85 0.0
16 08:55 N 5 10.00 Fair CLR 66.2 60.3 81% 29.85 0.0
16 08:35 NW 3 10.00 Fair CLR 64.9 59.7 83% 29.85 0.0
16 08:15 Calm 10.00 Fair CLR 64.2 61 89% 29.84 0.0
16 07:55 Calm 10.00 Fair CLR 62.4 60.6 94% 29.83 0.0
16 07:15 Calm 10.00 Fair CLR 59.7 59.4 99% 29.82 0.0
16 06:55 Calm 10.00 Fair CLR 58.1 58.1 60.4 54.5 100% 29.82 0.0
16 06:35 Calm 10.00 Fair CLR 56.5 56.5 100% 29.82 0.0
16 06:15 Calm 5.00 Fog/Mist CLR 55 55 100% 29.82 0.0
16 05:55 Calm 0.50 Fog VV005 54.5 54.5 100% 29.81 0.0
16 05:35 Calm 7.00 Partly Cloudy SCT065 55.4 55.4 100% 29.82 0.0
16 05:15 Calm 10.00 Partly Cloudy SCT039 SCT065 56.7 56.7 100% 29.82 0.0
16 04:55 Calm 10.00 Partly Cloudy SCT065 56.5 56.5 100% 29.82 0.0
16 04:35 Calm 10.00 Partly Cloudy SCT065 57 57 100% 29.81 0.0
16 04:15 Calm 10.00 Fair CLR 57 57 100% 29.81 0.0
16 03:55 Calm 10.00 Fair CLR 57.7 57.7 100% 29.81 0.0
16 03:35 Calm 7.00 Fair CLR 58.1 58.1 100% 29.8 0.0
16 03:15 Calm 10.00 Fair CLR 58.5 58.5 100% 29.79 0.0
16 02:55 Calm 5.00 Fog/Mist CLR 58.5 58.5 100% 29.78 0.0
16 02:35 Calm 10.00 Fair CLR 59 59 100% 29.78 0.0
16 02:15 Calm 10.00 Fair CLR 59.4 59.4 100% 29.78 0.0
16 01:55 Calm 10.00 Fair CLR 59.7 59.7 100% 29.78 0.0
16 01:35 Calm 10.00 Fair CLR 59.9 59.9 100% 29.78 0.0
16 01:15 Calm 2.50 Fog/Mist CLR 59.4 59.4 100% 29.78 0.0
16 00:55 Calm 7.00 Fair CLR 60.6 60.6 75.4 60.6 100% 29.78 0.0
16 00:35 Calm 10.00 Fair CLR 61.7 61.7 100% 29.77 0.0
16 00:15 Calm 10.00 Fair CLR 61 61 100% 29.77 0.0
15 23:55 Calm 7.00 Fair CLR 61 61 100% 29.76 0.0
15 23:35 Calm 10.00 Fair CLR 62.6 62.6 100% 29.76 0.0
15 23:15 Calm 10.00 Fair CLR 63.7 63.7 100% 29.76 0.0
15 22:55 Calm 10.00 Fair CLR 64 63.9 99% 29.75 0.0
15 22:35 Calm 10.00 Fair CLR 64.8 63.9 97% 29.75 0.0
15 22:15 Calm 10.00 Fair CLR 64.4 63.9 98% 29.75 0.0
15 21:55 Calm 10.00 Fair CLR 65.8 63.7 93% 29.75 0.0
15 21:35 N 3 10.00 Fair CLR 67.1 64 90% 29.75 0.0
15 21:15 N 3 10.00 Partly Cloudy SCT070 68 64.4 88% 29.75 0.0
15 20:55 N 5 10.00 Partly Cloudy SCT070 68.9 64.2 85% 29.74 0.0
15 20:35 N 5 10.00 Partly Cloudy SCT037 SCT045 SCT080 70.2 64.4 82% 29.73 0.0
15 20:15 N 5 10.00 Overcast SCT023 BKN036 OVC080 70.9 68.2 91% 29.73 0.0
15 19:55 NW 3 10.00 Overcast SCT023 SCT029 OVC037 73.4 66.9 80% 29.71 0.0
15 19:35 Calm 10.00 Mostly Cloudy SCT039 BKN050 BKN070 74.3 67.1 78% 29.71 0.0
15 19:15 Calm 10.00 Partly Cloudy SCT060 SCT085 75.4 67.6 77% 76 29.7 0.0
15 18:55 Calm 10.00 Mostly Cloudy SCT039 SCT050 BKN060 74.7 67.5 82.8 72 78% 29.7 0.0 0.04
15 18:35 NW 3 10.00 Overcast BKN041 BKN048 OVC075 74.8 66.9 76% 29.69 0.0
15 18:15 NW 3 10.00 Overcast BKN041 OVC050 74.7 66.9 77% 29.7 0.0
15 17:55 NW 3 10.00 Overcast BKN039 OVC046 75.2 67.5 77% 76 29.7 0.0
15 17:35 Calm 10.00 Mostly Cloudy BKN046 BKN065 76.3 66.7 72% 78 29.72 0.0
15 17:15 Calm 10.00 Overcast OVC048 76.3 67.5 74% 78 29.73 0.0
15 16:55 SW 5 10.00 Overcast OVC050 73.9 67.1 79% 29.75 0.0
15 16:35 W 5 10.00 Overcast BKN050 OVC065 73 67.6 83% 29.75 0.0
15 16:15 W 5 10.00 Mostly Cloudy SCT043 BKN050 BKN070 72.9 68.4 86% 29.75 0.0
15 15:55 Calm 10.00 Light Rain SCT036 SCT046 OVC050 72 67.1 85% 29.75 0.0 0.04 0.04
15 15:35 SW 7 10.00 Overcast OVC050 78.8 64.4 61% 81 29.75 0.0
15 15:15 SW 8 G 16 10.00 Mostly Cloudy BKN050 79.9 63.5 57% 81 29.74 0.0
15 14:55 W 7 10.00 Partly Cloudy SCT044 SCT050 82.2 63.9 54% 84 29.74 0.0
15 14:35 SW 7 10.00 Partly Cloudy SCT042 SCT050 81.7 64.9 57% 83 29.74 0.0
15 14:15 W 3 10.00 Fair CLR 81.1 64.4 57% 83 29.74 0.0
15 13:55 W 7 10.00 Partly Cloudy SCT037 80.4 64.4 58% 82 29.75 0.0
15 13:35 W 5 10.00 Partly Cloudy SCT035 80.1 64.9 60% 82 29.76 0.0
15 13:15 SW 10 G 16 10.00 Partly Cloudy SCT035 79.5 65.3 62% 81 29.77 0.0
15 12:55 SW 7 G 16 10.00 Partly Cloudy SCT033 77.9 64.8 79.7 62.8 64% 80 29.78 0.0
15 12:35 SW 10 G 17 10.00 Partly Cloudy SCT034 SCT039 79.2 64.9 62% 81 29.78 0.0
15 12:15 SW 6 10.00 Mostly Cloudy BKN032 BKN038 77.5 65.8 67% 79 29.79 0.0
15 11:55 SW 9 G 16 10.00 Partly Cloudy SCT030 78.3 67.3 69% 80 29.8 0.0
15 11:35 SW 9 10.00 Fair CLR 78.3 67.1 69% 80 29.81 0.0
15 11:15 SW 8 10.00 Fair CLR 77 66.7 71% 79 29.82 0.0
15 10:55 S 8 10.00 Fair CLR 75.2 65.8 73% 77 29.82 0.0
15 10:35 S 6 10.00 Fair CLR 73.9 64.4 72% 29.83 0.0
15 10:15 S 5 10.00 Fair CLR 73 63 71% 29.83 0.0
15 09:55 S 3 10.00 Fair CLR 71.8 63 74% 29.84 0.0
15 09:35 S 3 10.00 Fair CLR 71.6 62.1 72% 29.85 0.0
15 09:15 SE 3 10.00 Fair CLR 70.9 62.8 76% 29.85 0.0
15 08:55 Calm 10.00 Fair CLR 70.2 61.9 75% 29.86 0.0
15 08:35 Calm 10.00 Fair CLR 70 61.7 75% 29.86 0.0
15 08:15 Calm 10.00 Fair CLR 69.4 60.8 74% 29.85 0.0
15 07:55 Calm 10.00 Fair CLR 68 62.4 82% 29.85 0.0
15 07:35 Calm 10.00 Fair CLR 67.1 62.6 86% 29.86 0.0
15 07:15 Calm 10.00 Fair CLR 64.8 63.7 96% 29.85 0.0
15 06:55 Calm 10.00 Fair CLR 62.8 62.6 62.8 57.2 99% 29.85 0.0
15 06:35 Calm 10.00 Fair CLR 60.6 60.6 100% 29.86 0.0
Date Time (cdt) Wind (mph) Vis. (mi.) Weather Sky Cond. Air Dwpt Max. Min. Relative Humidity Wind Chill (°F) Heat Index (°F) altimeter (in) sea level (mb) 1 hr 3 hr 6 hr
6 hour
Temperature (ºF) Pressure Precipitation (in)